Location: Columbia
(38.9520°N, 92.3340°W)
Time: 13:15:59
(UTC-05:00)

Iridium 22 - Visible Passes

Search period start: 23 July 2014 00:00
Search period end: 02 August 2014 00:00
Orbit: 776 x 779 km, 86.4° (Epoch: 23 July)

Date Brightness Start Highest point End Pass type
(mag) Time Alt. Az. Time Alt. Az. Time Alt. Az.
23 Jul 6.5 03:15:40 27° SE 03:17:53 41° E 03:22:45 10° NNE visible
23 Jul 6.9 04:56:10 15° WSW 04:58:45 21° WNW 05:02:40 10° NNW visible
24 Jul 7.4 02:42:32 18° ESE 02:44:36 22° E 02:48:32 10° NNE visible
24 Jul 6.1 04:23:01 28° SW 04:25:01 38° W 04:29:52 10° NNW visible
25 Jul 8.1 02:09:40 10° E 02:11:25 12° ENE 02:13:10 10° ENE visible
25 Jul 5.4 03:49:51 46° SSW 03:51:24 73° W 03:56:37 10° N visible
26 Jul 5.9 03:16:41 47° SE 03:17:55 60° E 03:23:02 10° N visible
26 Jul 7.3 04:57:10 12° W 04:59:03 15° WNW 05:01:52 10° NW visible
27 Jul 6.8 02:43:30 29° ESE 02:44:33 32° E 02:49:07 10° NNE visible
27 Jul 6.6 04:23:59 24° WSW 04:25:14 27° W 04:29:36 10° NNW visible
28 Jul 7.6 02:10:18 17° E 02:11:18 17° E 02:14:37 10° NE visible
28 Jul 5.8 03:50:47 46° WSW 03:51:32 49° W 03:56:36 10° N visible
29 Jul 5.4 03:17:34 77° S 03:17:59 88° E 03:23:13 10° N visible
30 Jul 6.2 02:44:21 46° E 02:44:32 46° E 02:49:30 10° NNE visible
30 Jul 7.1 04:24:50 18° W 04:25:29 19° WNW 04:29:05 10° NNW visible
31 Jul 7.2 02:11:07 25° E 02:11:13 25° E 02:15:24 10° NNE visible
31 Jul 6.3 03:51:36 34° W 03:51:43 34° W 03:56:26 10° NNW visible
01 Aug 7.9 01:37:53 13° E 01:38:01 14° ENE 01:40:27 10° NE visible
01 Aug 5.6 03:18:22 63° WNW 03:18:22 63° WNW 03:23:16 10° N visible
